User: anonymous   Login
Location: Huntington Beach
(33.6600°N, 117.9980°W)
Time: 12:25:38
(UTC-07:00)
Language:

Hubble Space Telescope - Orbit

View from above orbital plane
View from above orbital plane
View from above satellite
View from above satellite

Ground track
Ground track

The orbit data is extracted from the following two-line orbital elements,

1 20580U 90037B   18147.55401323  .00000419  00000-0  14677-4 0  9991
2 20580  28.4691 251.5055 0002509 280.8637 196.9337 15.09043394342353
Epoch (UTC): 27 May 2018 13:17:46
Eccentricity: 0.0002509
inclination: 28.4691°
perigee height: 537 km
apogee height: 541 km
right ascension of ascending node: 251.5055°
argument of perigee: 280.8637°
revolutions per day: 15.09043394
mean anomaly at epoch: 196.9337°
orbit number at epoch: 34235

The dashed part of the orbit path shows where the satellite is in the earth's shadow,  

DLR